| time (UTC) | temp C | wind direction | speed KPH | gust KPH | rain 1hr cm | rain 24hr cm | rain mn cm | humidity % | barometer mb |
| 20260507001004 | 19 | 1 | 6.4 | 8.0 | 0.00 | 0.10 | 0.10 | 78 | 1008.7 |
| 20260507000503 | 19 | 1 | 4.8 | 8.0 | 0.00 | 0.10 | 0.10 | 78 | 1008.6 |
| 20260507000003 | 19 | 1 | 4.8 | 8.0 | 0.00 | 0.10 | 0.10 | 78 | 1008.4 |
| 20260506235503 | 19 | 1 | 3.2 | 8.0 | 0.00 | 0.10 | 0.10 | 77 | 1008.5 |
| 20260506234504 | 19 | 1 | 6.4 | 9.7 | 0.00 | 0.10 | 0.10 | 77 | 1008.7 |
| 20260506234003 | 19 | 2 | 6.4 | 8.0 | 0.00 | 0.10 | 0.10 | 77 | 1008.6 |
| 20260506233503 | 19 | 2 | 6.4 | 11.3 | 0.00 | 0.10 | 0.10 | 77 | 1008.5 |
| 20260506233004 | 19 | 1 | 6.4 | 11.3 | 0.00 | 0.10 | 0.10 | 76 | 1008.5 |
| 20260506232503 | 19 | 1 | 6.4 | 11.3 | 0.00 | 0.10 | 0.10 | 76 | 1008.5 |
| 20260506232003 | 19 | 1 | 6.4 | 9.7 | 0.00 | 0.10 | 0.10 | 76 | 1008.6 |
| 20260506231504 | 20 | 2 | 6.4 | 9.7 | 0.00 | 0.10 | 0.10 | 76 | 1008.5 |
| 20260506231003 | 20 | 1 | 6.4 | 8.0 | 0.00 | 0.10 | 0.10 | 76 | 1008.5 |
| 20260506230503 | 20 | 1 | 4.8 | 8.0 | 0.00 | 0.10 | 0.10 | 76 | 1008.5 |
| 20260506230003 | 20 | 1 | 4.8 | 6.4 | 0.00 | 0.10 | 0.10 | 75 | 1008.4 |
| 20260506225504 | 20 | 1 | 4.8 | 8.0 | 0.00 | 0.10 | 0.10 | 75 | 1008.4 |
| 20260506225003 | 20 | 2 | 4.8 | 8.0 | 0.00 | 0.10 | 0.10 | 76 | 1008.2 |
| 20260506224503 | 20 | 1 | 4.8 | 8.0 | 0.00 | 0.10 | 0.10 | 76 | 1008.4 |
| 20260506224003 | 20 | 2 | 8.0 | 16.1 | 0.00 | 0.10 | 0.10 | 76 | 1008.4 |
| 20260506223504 | 20 | 2 | 8.0 | 16.1 | 0.00 | 0.10 | 0.10 | 75 | 1008.3 |
| 20260506223003 | 20 | 1 | 8.0 | 16.1 | 0.00 | 0.10 | 0.10 | 75 | 1008.2 |
| 20260506222503 | 20 | 1 | 9.7 | 9.7 | 0.00 | 0.10 | 0.10 | 75 | 1008.2 |
| 20260506221504 | 20 | 2 | 8.0 | 11.3 | 0.00 | 0.10 | 0.10 | 75 | 1008.4 |
| 20260506220503 | 20 | 2 | 9.7 | 14.5 | 0.00 | 0.10 | 0.10 | 75 | 1008.3 |
| 20260506220004 | 20 | 1 | 8.0 | 12.9 | 0.00 | 0.10 | 0.10 | 75 | 1008.1 |
| 20260506215503 | 20 | 2 | 9.7 | 12.9 | 0.00 | 0.10 | 0.10 | 76 | 1008.1 |
| 20260506215003 | 20 | 1 | 9.7 | 14.5 | 0.00 | 0.10 | 0.10 | 77 | 1008.3 |
| 20260506214504 | 19 | 2 | 9.7 | 14.5 | 0.00 | 0.10 | 0.10 | 77 | 1008.2 |
| 20260506214003 | 19 | 2 | 8.0 | 14.5 | 0.00 | 0.10 | 0.10 | 77 | 1008.2 |
| 20260506213503 | 19 | 1 | 6.4 | 11.3 | 0.00 | 0.10 | 0.10 | 78 | 1008.1 |
| 20260506213004 | 19 | 1 | 6.4 | 11.3 | 0.00 | 0.10 | 0.10 | 78 | 1008.1 |
| 20260506212504 | 19 | 1 | 8.0 | 11.3 | 0.00 | 0.10 | 0.10 | 77 | 1008.1 |
| 20260506211504 | 19 | 1 | 8.0 | 14.5 | 0.00 | 0.10 | 0.10 | 77 | 1008.0 |
| 20260506211004 | 19 | 2 | 8.0 | 14.5 | 0.00 | 0.10 | 0.10 | 77 | 1008.0 |
| 20260506210503 | 19 | 1 | 8.0 | 14.5 | 0.00 | 0.10 | 0.10 | 78 | 1007.9 |
| 20260506205504 | 18 | 1 | 9.7 | 16.1 | 0.00 | 0.10 | 0.10 | 78 | 1008.0 |
| 20260506205003 | 18 | 2 | 12.9 | 20.9 | 0.00 | 0.10 | 0.10 | 79 | 1007.9 |
| 20260506204503 | 18 | 2 | 12.9 | 20.9 | 0.00 | 0.10 | 0.10 | 79 | 1007.9 |
| 20260506204003 | 18 | 1 | 14.5 | 14.5 | 0.00 | 0.10 | 0.10 | 79 | 1007.9 |
| 20260506203003 | 18 | 1 | 11.3 | 20.9 | 0.00 | 0.10 | 0.10 | 80 | 1007.8 |
| 20260506202004 | 18 | 1 | 9.7 | 9.7 | 0.00 | 0.10 | 0.10 | 80 | 1007.9 |
| 20260506201504 | 18 | 2 | 9.7 | 14.5 | 0.00 | 0.10 | 0.10 | 80 | 1007.9 |
| 20260506201003 | 18 | 1 | 12.9 | 14.5 | 0.00 | 0.10 | 0.10 | 80 | 1007.8 |
| 20260506200503 | 18 | 1 | 12.9 | 14.5 | 0.00 | 0.10 | 0.10 | 80 | 1008.0 |
| 20260506200004 | 18 | 2 | 11.3 | 12.9 | 0.00 | 0.10 | 0.10 | 81 | 1008.0 |
| 20260506195503 | 17 | 1 | 8.0 | 12.9 | 0.00 | 0.10 | 0.10 | 81 | 1008.1 |
| 20260506195003 | 17 | 1 | 8.0 | 8.0 | 0.00 | 0.10 | 0.10 | 82 | 1008.1 |
| 20260506194003 | 17 | 2 | 11.3 | 24.1 | 0.00 | 0.10 | 0.10 | 82 | 1008.1 |
| 20260506193503 | 17 | 1 | 9.7 | 24.1 | 0.00 | 0.10 | 0.10 | 82 | 1008.3 |
| 20260506193004 | 17 | 1 | 8.0 | 17.7 | 0.00 | 0.10 | 0.10 | 82 | 1008.4 |
| 20260506192004 | 17 | 1 | 11.3 | 16.1 | 0.00 | 0.10 | 0.10 | 82 | 1008.4 |
| 20260506191503 | 17 | 2 | 9.7 | 16.1 | 0.00 | 0.10 | 0.10 | 83 | 1008.5 |
| 20260506191004 | 17 | 2 | 9.7 | 16.1 | 0.00 | 0.10 | 0.10 | 83 | 1008.5 |
| 20260506190504 | 17 | 2 | 9.7 | 16.1 | 0.00 | 0.10 | 0.10 | 83 | 1008.4 |
| 20260506190004 | 17 | 1 | 8.0 | 9.7 | 0.00 | 0.10 | 0.10 | 83 | 1008.5 |
| 20260506185503 | 17 | 1 | 8.0 | 9.7 | 0.00 | 0.10 | 0.10 | 83 | 1008.6 |
| 20260506185003 | 17 | 2 | 11.3 | 20.9 | 0.00 | 0.10 | 0.10 | 83 | 1008.6 |
| 20260506184504 | 17 | 1 | 11.3 | 20.9 | 0.00 | 0.10 | 0.10 | 83 | 1008.7 |
| 20260506184003 | 17 | 1 | 11.3 | 22.5 | 0.00 | 0.10 | 0.10 | 83 | 1008.7 |
| 20260506182504 | 17 | 2 | 9.7 | 20.9 | 0.00 | 0.10 | 0.10 | 83 | 1008.8 |
| 20260506182003 | 17 | 1 | 9.7 | 20.9 | 0.00 | 0.10 | 0.10 | 83 | 1008.8 |
| 20260506181503 | 17 | 1 | 11.3 | 11.3 | 0.00 | 0.10 | 0.10 | 82 | 1008.8 |
| 20260506180503 | 17 | 2 | 11.3 | 16.1 | 0.00 | 0.10 | 0.10 | 83 | 1008.8 |
| 20260506180004 | 17 | 1 | 8.0 | 16.1 | 0.00 | 0.10 | 0.10 | 83 | 1008.8 |
| 20260506175503 | 17 | 1 | 6.4 | 6.4 | 0.00 | 0.10 | 0.10 | 84 | 1008.8 |
| 20260506175004 | 17 | 2 | 6.4 | 9.7 | 0.00 | 0.10 | 0.10 | 84 | 1009.0 |
| 20260506174503 | 17 | 1 | 8.0 | 14.5 | 0.00 | 0.10 | 0.10 | 84 | 1008.9 |
| 20260506173004 | 17 | 1 | 11.3 | 30.6 | 0.00 | 0.10 | 0.10 | 84 | 1009.0 |
| 20260506172503 | 17 | 1 | 9.7 | 30.6 | 0.00 | 0.10 | 0.10 | 84 | 1009.1 |
| 20260506172003 | 17 | 1 | 8.0 | 11.3 | 0.03 | 0.10 | 0.10 | 84 | 1009.2 |
| 20260506171504 | 17 | 1 | 6.4 | 9.7 | 0.03 | 0.10 | 0.10 | 86 | 1009.1 |
| 20260506171003 | 17 | 2 | 6.4 | 9.7 | 0.03 | 0.10 | 0.10 | 86 | 1009.2 |
| 20260506170504 | 17 | 1 | 6.4 | 9.7 | 0.05 | 0.10 | 0.10 | 86 | 1009.0 |
| 20260506170004 | 17 | 2 | 6.4 | 14.5 | 0.05 | 0.10 | 0.10 | 87 | 1009.2 |
| 20260506165503 | 16 | 1 | 6.4 | 14.5 | 0.05 | 0.10 | 0.10 | 87 | 1009.0 |
| 20260506165003 | 16 | 2 | 4.8 | 8.0 | 0.05 | 0.10 | 0.10 | 87 | 1009.0 |
| 20260506164504 | 16 | 1 | 4.8 | 6.4 | 0.08 | 0.10 | 0.10 | 87 | 1009.3 |
| 20260506164004 | 16 | 1 | 4.8 | 4.8 | 0.08 | 0.10 | 0.10 | 87 | 1009.2 |
| 20260506163003 | 16 | 1 | 3.2 | 4.8 | 0.10 | 0.10 | 0.10 | 87 | 1009.4 |
| 20260506162503 | 16 | 1 | 3.2 | 3.2 | 0.10 | 0.10 | 0.10 | 87 | 1009.6 |
| 20260506162003 | 16 | 1 | 3.2 | 6.4 | 0.08 | 0.08 | 0.08 | 86 | 1009.9 |
| 20260506161503 | 16 | 2 | 6.4 | 9.7 | 0.08 | 0.08 | 0.08 | 86 | 1010.1 |
| 20260506161003 | 16 | 1 | 6.4 | 9.7 | 0.08 | 0.08 | 0.08 | 85 | 1010.3 |
| 20260506160504 | 16 | 1 | 8.0 | 12.9 | 0.05 | 0.05 | 0.05 | 84 | 1010.4 |
| 20260506160004 | 16 | 1 | 8.0 | 12.9 | 0.05 | 0.05 | 0.05 | 84 | 1010.5 |
| 20260506155503 | 16 | 2 | 6.4 | 11.3 | 0.05 | 0.05 | 0.05 | 83 | 1010.6 |
| 20260506155003 | 16 | 2 | 4.8 | 12.9 | 0.05 | 0.05 | 0.05 | 83 | 1010.6 |
| 20260506154504 | 17 | 2 | 6.4 | 12.9 | 0.03 | 0.03 | 0.03 | 82 | 1010.6 |
| 20260506154003 | 17 | 1 | 4.8 | 9.7 | 0.03 | 0.03 | 0.03 | 82 | 1010.6 |
| 20260506153503 | 17 | 1 | 6.4 | 9.7 | 0.03 | 0.03 | 0.03 | 81 | 1010.4 |
| 20260506153003 | 17 | 1 | 8.0 | 11.3 | 0.00 | 0.00 | 0.00 | 80 | 1010.4 |
| 20260506152504 | 17 | 2 | 9.7 | 12.9 | 0.00 | 0.00 | 0.00 | 79 | 1010.6 |
| 20260506152003 | 17 | 1 | 9.7 | 12.9 | 0.00 | 0.00 | 0.00 | 76 | 1010.5 |
| 20260506151503 | 18 | 1 | 9.7 | 12.9 | 0.00 | 0.00 | 0.00 | 75 | 1010.6 |
| 20260506151004 | 18 | 1 | 8.0 | 12.9 | 0.00 | 0.00 | 0.00 | 73 | 1010.3 |
| 20260506145503 | 18 | 1 | 8.0 | 11.3 | 0.00 | 0.00 | 0.00 | 72 | 1010.3 |
| 20260506145003 | 18 | 1 | 8.0 | 11.3 | 0.00 | 0.00 | 0.00 | 72 | 1010.4 |
| 20260506144504 | 18 | 2 | 9.7 | 11.3 | 0.00 | 0.00 | 0.00 | 70 | 1010.5 |
| 20260506144004 | 18 | 1 | 9.7 | 11.3 | 0.00 | 0.00 | 0.00 | 69 | 1010.6 |
| 20260506143004 | 19 | 2 | 11.3 | 17.7 | 0.00 | 0.00 | 0.00 | 67 | 1010.5 |
| 20260506142505 | 19 | 1 | 12.9 | 14.5 | 0.00 | 0.00 | 0.00 | 67 | 1010.6 |
| 20260506142003 | 19 | 1 | 14.5 | 17.7 | 0.00 | 0.00 | 0.00 | 67 | 1010.5 |
| 20260506141504 | 19 | 2 | 11.3 | 17.7 | 0.00 | 0.00 | 0.00 | 67 | 1010.5 |
| 20260506140503 | 19 | 1 | 9.7 | 11.3 | 0.00 | 0.00 | 0.00 | 67 | 1010.4 |
| 20260506140003 | 20 | 2 | 6.4 | 8.0 | 0.00 | 0.00 | 0.00 | 67 | 1010.5 |
| 20260506135504 | 19 | 1 | 8.0 | 12.9 | 0.00 | 0.00 | 0.00 | 67 | 1010.3 |
| 20260506135003 | 19 | 1 | 9.7 | 14.5 | 0.00 | 0.00 | 0.00 | 68 | 1010.3 |
| 20260506134503 | 18 | 1 | 9.7 | 14.5 | 0.00 | 0.00 | 0.00 | 69 | 1010.4 |
| 20260506134003 | 18 | 1 | 8.0 | 14.5 | 0.00 | 0.00 | 0.00 | 69 | 1010.5 |
| 20260506133504 | 18 | 2 | 8.0 | 11.3 | 0.00 | 0.00 | 0.00 | 70 | 1010.4 |
| 20260506133004 | 18 | 1 | 11.3 | 11.3 | 0.00 | 0.00 | 0.00 | 70 | 1010.4 |
| 20260506132503 | 18 | 1 | 11.3 | 11.3 | 0.00 | 0.00 | 0.00 | 69 | 1010.6 |
| 20260506132003 | 18 | 2 | 12.9 | 22.5 | 0.00 | 0.00 | 0.00 | 70 | 1010.4 |
| 20260506131504 | 18 | 2 | 11.3 | 22.5 | 0.00 | 0.00 | 0.00 | 70 | 1010.6 |
| 20260506131003 | 18 | 1 | 11.3 | 19.3 | 0.00 | 0.00 | 0.00 | 69 | 1010.8 |
| 20260506130503 | 18 | 2 | 11.3 | 24.1 | 0.00 | 0.00 | 0.00 | 69 | 1010.7 |
| 20260506130004 | 18 | 1 | 11.3 | 24.1 | 0.00 | 0.00 | 0.00 | 69 | 1010.9 |
| 20260506125503 | 18 | 2 | 9.7 | 16.1 | 0.00 | 0.00 | 0.00 | 70 | 1010.7 |
| 20260506125003 | 18 | 2 | 9.7 | 17.7 | 0.00 | 0.00 | 0.00 | 70 | 1010.6 |
| 20260506124503 | 18 | 1 | 9.7 | 17.7 | 0.00 | 0.00 | 0.00 | 71 | 1010.6 |
| 20260506124004 | 18 | 2 | 8.0 | 17.7 | 0.00 | 0.00 | 0.00 | 71 | 1010.7 |
| 20260506123503 | 18 | 2 | 6.4 | 11.3 | 0.00 | 0.00 | 0.00 | 71 | 1010.5 |
| 20260506123003 | 18 | 2 | 6.4 | 11.3 | 0.00 | 0.00 | 0.00 | 71 | 1010.4 |
| 20260506122503 | 18 | 1 | 6.4 | 8.0 | 0.00 | 0.00 | 0.00 | 71 | 1010.5 |
| 20260506122005 | 18 | 2 | 6.4 | 16.1 | 0.00 | 0.00 | 0.00 | 72 | 1010.3 |
| 20260506121503 | 18 | 2 | 8.0 | 16.1 | 0.00 | 0.00 | 0.00 | 72 | 1010.3 |
| 20260506121003 | 18 | 1 | 6.4 | 16.1 | 0.00 | 0.00 | 0.00 | 72 | 1010.5 |
| 20260506120503 | 17 | 1 | 6.4 | 8.0 | 0.00 | 0.00 | 0.00 | 73 | 1010.6 |
| 20260506120004 | 17 | 1 | 6.4 | 6.4 | 0.00 | 0.00 | 0.00 | 73 | 1010.5 |
| 20260506115503 | 17 | 2 | 6.4 | 12.9 | 0.00 | 0.00 | 0.00 | 73 | 1010.5 |
| 20260506115003 | 17 | 2 | 6.4 | 12.9 | 0.00 | 0.00 | 0.00 | 73 | 1010.5 |
| 20260506114504 | 17 | 1 | 6.4 | 12.9 | 0.00 | 0.00 | 0.00 | 74 | 1010.5 |
| 20260506114003 | 17 | 1 | 4.8 | 9.7 | 0.00 | 0.00 | 0.00 | 74 | 1010.4 |
| 20260506113503 | 17 | 1 | 4.8 | 9.7 | 0.00 | 0.00 | 0.00 | 74 | 1010.4 |
| 20260506113005 | 17 | 1 | 6.4 | 12.9 | 0.00 | 0.00 | 0.00 | 74 | 1010.4 |
| 20260506112003 | 17 | 2 | 6.4 | 14.5 | 0.00 | 0.00 | 0.00 | 74 | 1010.5 |
| 20260506111503 | 17 | 2 | 4.8 | 8.0 | 0.00 | 0.00 | 0.00 | 74 | 1010.5 |
| 20260506110004 | 17 | 1 | 4.8 | 8.0 | 0.00 | 0.00 | 0.00 | 75 | 1010.4 |
| 20260506105503 | 17 | 1 | 6.4 | 8.0 | 0.00 | 0.00 | 0.00 | 75 | 1010.3 |
| 20260506105003 | 17 | 1 | 6.4 | 8.0 | 0.00 | 0.00 | 0.00 | 75 | 1010.3 |
| 20260506104504 | 17 | 2 | 4.8 | 8.0 | 0.00 | 0.00 | 0.00 | 75 | 1010.3 |
| 20260506104003 | 17 | 1 | 6.4 | 11.3 | 0.00 | 0.00 | 0.00 | 75 | 1010.2 |
| 20260506103503 | 17 | 2 | 6.4 | 11.3 | 0.00 | 0.00 | 0.00 | 75 | 1010.4 |
| 20260506103003 | 17 | 1 | 6.4 | 11.3 | 0.00 | 0.00 | 0.00 | 76 | 1010.3 |
| 20260506102504 | 17 | 1 | 4.8 | 6.4 | 0.00 | 0.00 | 0.00 | 76 | 1010.2 |
| 20260506102003 | 17 | 2 | 4.8 | 9.7 | 0.00 | 0.00 | 0.00 | 76 | 1010.3 |
| 20260506100505 | 17 | 2 | 6.4 | 11.3 | 0.00 | 0.00 | 0.00 | 76 | 1010.3 |
| 20260506100003 | 17 | 2 | 6.4 | 11.3 | 0.00 | 0.00 | 0.00 | 76 | 1010.3 |
| 20260506095503 | 17 | 1 | 4.8 | 11.3 | 0.00 | 0.00 | 0.00 | 76 | 1010.3 |
| 20260506095003 | 17 | 1 | 4.8 | 8.0 | 0.00 | 0.00 | 0.00 | 76 | 1010.2 |
| 20260506094503 | 17 | 2 | 6.4 | 8.0 | 0.00 | 0.00 | 0.00 | 76 | 1010.1 |
| 20260506094003 | 17 | 1 | 6.4 | 9.7 | 0.00 | 0.00 | 0.00 | 76 | 1010.1 |
| 20260506093004 | 17 | 2 | 6.4 | 9.7 | 0.00 | 0.00 | 0.00 | 75 | 1010.1 |
| 20260506092503 | 17 | 2 | 4.8 | 9.7 | 0.00 | 0.00 | 0.00 | 75 | 1010.2 |
| 20260506092004 | 17 | 1 | 4.8 | 6.4 | 0.00 | 0.00 | 0.00 | 75 | 1010.2 |
| 20260506091503 | 17 | 1 | 4.8 | 6.4 | 0.00 | 0.00 | 0.00 | 75 | 1010.2 |
| 20260506091003 | 17 | 1 | 4.8 | 8.0 | 0.00 | 0.00 | 0.00 | 75 | 1010.2 |
| 20260506090504 | 17 | 2 | 6.4 | 8.0 | 0.00 | 0.00 | 0.00 | 75 | 1010.2 |
| 20260506090004 | 17 | 1 | 4.8 | 8.0 | 0.00 | 0.00 | 0.00 | 75 | 1010.2 |
| 20260506085503 | 17 | 2 | 4.8 | 9.7 | 0.00 | 0.00 | 0.00 | 75 | 1010.3 |
| 20260506084504 | 17 | 2 | 6.4 | 9.7 | 0.00 | 0.00 | 0.00 | 75 | 1010.3 |
| 20260506084003 | 17 | 1 | 6.4 | 9.7 | 0.00 | 0.00 | 0.00 | 75 | 1010.3 |
| 20260506083503 | 17 | 2 | 4.8 | 6.4 | 0.00 | 0.00 | 0.00 | 75 | 1010.3 |
| 20260506083003 | 17 | 1 | 4.8 | 6.4 | 0.00 | 0.00 | 0.00 | 75 | 1010.4 |
| 20260506082504 | 17 | 1 | 4.8 | 4.8 | 0.00 | 0.00 | 0.00 | 75 | 1010.3 |
| 20260506082003 | 17 | 1 | 4.8 | 4.8 | 0.00 | 0.00 | 0.00 | 75 | 1010.4 |
| 20260506081503 | 17 | 1 | 4.8 | 4.8 | 0.00 | 0.00 | 0.00 | 75 | 1010.5 |
| 20260506081003 | 18 | 1 | 4.8 | 4.8 | 0.00 | 0.00 | 0.00 | 75 | 1010.5 |
| 20260506080504 | 18 | 1 | 4.8 | 8.0 | 0.00 | 0.00 | 0.00 | 75 | 1010.6 |
| 20260506073503 | 18 | 1 | 3.2 | 9.7 | 0.00 | 0.00 | 0.00 | 73 | 1010.6 |
| 20260506073004 | 18 | 2 | 4.8 | 9.7 | 0.00 | 0.00 | 0.00 | 73 | 1010.6 |
| 20260506072003 | 18 | 1 | 4.8 | 8.0 | 0.00 | 0.00 | 0.00 | 73 | 1010.7 |
| 20260506071503 | 18 | 1 | 4.8 | 4.8 | 0.00 | 0.00 | 0.00 | 73 | 1010.8 |
| 20260506071003 | 18 | 1 | 4.8 | 4.8 | 0.00 | 0.00 | 0.00 | 72 | 1010.8 |
| 20260506070504 | 18 | 1 | 4.8 | 4.8 | 0.00 | 0.00 | 0.00 | 72 | 1010.7 |
| 20260506062504 | 18 | 2 | 6.4 | 8.0 | 0.00 | 0.00 | 0.00 | 71 | 1010.9 |
| 20260506061004 | 18 | 2 | 4.8 | 11.3 | 0.00 | 0.00 | 0.00 | 71 | 1010.8 |
| 20260506060504 | 18 | 1 | 6.4 | 11.3 | 0.00 | 0.00 | 0.00 | 71 | 1011.0 |
| 20260506050504 | 19 | 1 | 8.0 | 12.9 | 0.00 | 0.00 | 0.00 | 67 | 1011.3 |
| 20260506044503 | 19 | 2 | 6.4 | 14.5 | 0.00 | 0.00 | 0.00 | 66 | 1011.4 |
| 20260506044003 | 20 | 1 | 6.4 | 8.0 | 0.00 | 0.00 | 0.00 | 66 | 1011.4 |
| 20260506043503 | 20 | 1 | 6.4 | 8.0 | 0.00 | 0.00 | 0.00 | 65 | 1011.4 |
| 20260506043004 | 20 | 1 | 6.4 | 9.7 | 0.00 | 0.00 | 0.00 | 65 | 1011.4 |
| 20260506042003 | 20 | 1 | 6.4 | 6.4 | 0.00 | 0.00 | 0.00 | 64 | 1011.4 |
| 20260506041504 | 20 | 1 | 6.4 | 11.3 | 0.00 | 0.00 | 0.00 | 64 | 1011.5 |
| 20260506041004 | 20 | 2 | 6.4 | 11.3 | 0.00 | 0.00 | 0.00 | 63 | 1011.4 |
| 20260506040503 | 20 | 2 | 6.4 | 11.3 | 0.00 | 0.00 | 0.00 | 63 | 1011.4 |
| 20260506040004 | 20 | 2 | 4.8 | 8.0 | 0.00 | 0.00 | 0.00 | 63 | 1011.4 |
| 20260506035503 | 20 | 1 | 6.4 | 8.0 | 0.00 | 0.00 | 0.00 | 62 | 1011.3 |
| 20260506035004 | 20 | 1 | 6.4 | 12.9 | 0.00 | 0.00 | 0.00 | 61 | 1011.3 |
| 20260506034503 | 20 | 1 | 8.0 | 12.9 | 0.00 | 0.00 | 0.00 | 61 | 1011.3 |
| 20260506034004 | 20 | 2 | 6.4 | 12.9 | 0.00 | 0.00 | 0.00 | 61 | 1011.3 |
| 20260506033503 | 20 | 1 | 6.4 | 9.7 | 0.00 | 0.00 | 0.00 | 60 | 1011.2 |
| 20260506033004 | 20 | 2 | 6.4 | 9.7 | 0.00 | 0.00 | 0.00 | 60 | 1011.3 |
| 20260506031503 | 20 | 1 | 8.0 | 9.7 | 0.00 | 0.00 | 0.00 | 59 | 1011.3 |
| 20260506031004 | 20 | 1 | 8.0 | 9.7 | 0.00 | 0.00 | 0.00 | 59 | 1011.3 |
| 20260506030503 | 20 | 1 | 6.4 | 9.7 | 0.00 | 0.00 | 0.00 | 59 | 1011.4 |
| 20260506030003 | 20 | 2 | 6.4 | 8.0 | 0.00 | 0.00 | 0.00 | 59 | 1011.4 |
| 20260506025503 | 20 | 2 | 6.4 | 6.4 | 0.00 | 0.00 | 0.00 | 58 | 1011.4 |
| 20260506025003 | 20 | 1 | 6.4 | 9.7 | 0.00 | 0.00 | 0.00 | 58 | 1011.4 |
| 20260506024504 | 21 | 2 | 6.4 | 9.7 | 0.00 | 0.00 | 0.00 | 58 | 1011.4 |
| 20260506024003 | 20 | 1 | 4.8 | 6.4 | 0.00 | 0.00 | 0.00 | 58 | 1011.5 |
| 20260506023003 | 20 | 1 | 4.8 | 6.4 | 0.00 | 0.00 | 0.00 | 58 | 1011.5 |
| 20260506022504 | 21 | 1 | 4.8 | 4.8 | 0.00 | 0.00 | 0.00 | 58 | 1011.4 |
| 20260506021503 | 21 | 1 | 4.8 | 6.4 | 0.00 | 0.00 | 0.00 | 58 | 1011.5 |
| 20260506021003 | 21 | 2 | 4.8 | 6.4 | 0.00 | 0.00 | 0.00 | 57 | 1011.5 |
| 20260506020503 | 21 | 2 | 4.8 | 8.0 | 0.00 | 0.00 | 0.00 | 57 | 1011.4 |
| 20260506020004 | 21 | 1 | 4.8 | 8.0 | 0.00 | 0.00 | 0.00 | 57 | 1011.4 |
| 20260506015503 | 21 | 2 | 4.8 | 9.7 | 0.00 | 0.00 | 0.00 | 57 | 1011.4 |
| 20260506015003 | 21 | 1 | 6.4 | 12.9 | 0.00 | 0.00 | 0.00 | 56 | 1011.4 |
| 20260506014504 | 21 | 1 | 6.4 | 12.9 | 0.00 | 0.00 | 0.00 | 56 | 1011.4 |
| 20260506014003 | 21 | 2 | 4.8 | 12.9 | 0.00 | 0.00 | 0.00 | 55 | 1011.2 |
| 20260506013503 | 21 | 1 | 4.8 | 8.0 | 0.00 | 0.00 | 0.00 | 54 | 1011.2 |
| 20260506013004 | 22 | 2 | 4.8 | 9.7 | 0.00 | 0.00 | 0.00 | 53 | 1011.1 |
| 20260506012503 | 22 | 2 | 4.8 | 9.7 | 0.00 | 0.00 | 0.00 | 52 | 1011.1 |
| 20260506012003 | 22 | 1 | 4.8 | 9.7 | 0.00 | 0.00 | 0.00 | 51 | 1011.1 |
| 20260506011504 | 22 | 1 | 4.8 | 8.0 | 0.00 | 0.00 | 0.00 | 49 | 1011.0 |
| 20260506011004 | 22 | 2 | 4.8 | 6.4 | 0.00 | 0.00 | 0.00 | 48 | 1011.0 |
| 20260506010503 | 22 | 2 | 4.8 | 9.7 | 0.00 | 0.00 | 0.00 | 47 | 1010.9 |
| 20260506005503 | 23 | 1 | 4.8 | 4.8 | 0.00 | 0.00 | 0.00 | 46 | 1010.7 |
| 20260506005004 | 23 | 2 | 4.8 | 6.4 | 0.00 | 0.00 | 0.00 | 45 | 1010.8 |
| 20260506004504 | 23 | 1 | 6.4 | 6.4 | 0.00 | 0.00 | 0.00 | 44 | 1010.7 |
| 20260506004003 | 23 | 1 | 4.8 | 6.4 | 0.00 | 0.00 | 0.00 | 43 | 1010.6 |
| 20260506003504 | 23 | 2 | 4.8 | 8.0 | 0.00 | 0.00 | 0.00 | 41 | 1010.5 |
| 20260506003003 | 24 | 1 | 4.8 | 8.0 | 0.00 | 0.00 | 0.00 | 41 | 1010.5 |
| 20260506002503 | 24 | 1 | 8.0 | 14.5 | 0.00 | 0.00 | 0.00 | 40 | 1010.4 |
| 20260506002004 | 24 | 2 | 9.7 | 14.5 | 0.00 | 0.00 | 0.00 | 40 | 1010.4 |
| 20260506001504 | 24 | 2 | 8.0 | 12.9 | 0.00 | 0.00 | 0.00 | 40 | 1010.3 |